Regional Weather Roundup
Issued by NWS State College, PA

Home | Current Version | Previous Version | Graphics & Text | Print | Product List | Glossary On
Versions: 1 2 3 4 5 6 7 8 9 10 11 12 13 14 15 16 17 18 19 20 21 22 23 24 25 26 27 28 29 30 31 32 33 34 35 36 37 38 39 40 41 42 43 44 45 46 47 48 49 50
000
ASUS41 KCTP 201810
RWRCTP

REGIONAL WEATHER ROUNDUP
NATIONAL WEATHER SERVICE STATE COLLEGE PA
100 PM EST FRI JAN 20 2017

Note: "fair" indicates few or no clouds below 12,000 feet with no
significant weather and/or obstructions to visibility.

* = STATION THAT DOES NOT REPORT PRECIPITATION /E.G. RAIN...SNOW...ETC/
    THUNDER OR FOG.

PAZ002>004-007>009-013>016-020>023-029>032-201900-
WESTERN PENNSYLVANIA

CITY           SKY/WX    TMP DP  RH WIND       PRES   REMARKS
ERIE           LGT RAIN  45  41  86 S10       29.67F
MEADVILLE      LGT RAIN  43  41  93 VRB5      29.68S FOG
FRANKLIN*        N/A     43  39  87 S9        29.70F
NEW CASTLE     LGT RAIN  46  45  96 S3        29.70S
BEAVER COUNTY  CLOUDY    48  48 100 SW9       29.70S
BUTLER*        CLOUDY    46  45  93 S6        29.74R
PITTSBURGH INT CLOUDY    52  51  97 SW8       29.70S
PITTSBURGH     CLOUDY    52  48  86 SW10      29.71S
INDIANA*       CLOUDY    46  46 100 S9        29.75F FOG
LATROBE        CLOUDY    54  52  94 SW12      29.74S
WASHINGTON CO* NOT AVBL
$$

PAZ004>006-010>012-017>019-024>028-033>037-041-042-045-046-049>053-201900-
CENTRAL PENNSYLVANIA

CITY           SKY/WX    TMP DP  RH WIND       PRES   REMARKS
BRADFORD       LGT RAIN  38  37  97 SE9       29.71F FOG
DUBOIS         FOG       39  37  92 SE10      29.71F VSB 1
CLEARFIELD     LGT RAIN  36  36 100 NE6       29.77F VSB 1/4
JOHNSTOWN      LGT RAIN  43  41  93 S8        29.73F FOG
ALTOONA        CLOUDY    42  40  92 S6        29.79F
STATE COLLEGE  DRIZZLE   36  36 100 CALM      29.81F
WILLIAMSPORT   RAIN      39  35  86 NE13      29.86F FOG
SELINSGROVE    LGT RAIN  35  35 100 CALM      29.89S FOG
FT INDIANTOWN  LGT RAIN  36  36 100 E5        29.91F FOG
CAPITAL CITY   LGT RAIN  40  37  89 E9        29.89F FOG
HARRISBURG     RAIN      40  39  97 SE7       29.89F FOG
YORK           LGT RAIN  42  41  96 E5        29.88F FOG
$$

PAZ038>040-043-044-047-048-054-055-060>062-067>071-201900-
EASTERN PENNSYLVANIA

CITY           SKY/WX    TMP DP  RH WIND       PRES   REMARKS
SCRANTON       CLOUDY    42  34  73 S6        29.87F
MOUNT POCONO   CLOUDY    33  30  88 SE8       29.86F
ALLENTOWN      RAIN      40  34  79 SE5       29.93F
QUAKERTOWN*    CLOUDY    37  36  93 SE3       29.93F
READING        LGT RAIN  37  37 100 CALM      29.92F FOG
LANCASTER      LGT RAIN  39  39 100 SE8       29.91F FOG
COATESVILLE    CLOUDY    37  36  93 E6        29.92F FOG
POTTSTOWN      LGT RAIN  37  36  96 E5        29.93F FOG
BLUE BELL      CLOUDY    37  36  93 CALM      29.93F
DOYLESTOWN     LGT RAIN  40  37  89 CALM      29.93F
WILLOW GROVE   NOT AVBL
NORTH PHILA    LGT RAIN  42  36  79 E5        29.96F
PHILADELPHIA   LGT RAIN  40  36  86 E3        29.95F
$$



USA.gov is the U.S. government's official web portal to all federal, state and local government web resources and services.